Time,TemperatureF,DewpointF,PressureIn,WindDirection,WindDirectionDegrees,WindSpeedMPH,WindSpeedGustMPH,Humidity,HourlyPrecipIn,Conditions,Clouds,dailyrainin,SoftwareType,DateUTC
2013-09-04 00:05:00,60.1,60.0,29.77,ENE,67,0.0,0.0,98,0.00,,,0.00,weatherlink.com 1.10,2013-09-04 04:05:00,
2013-09-04 00:20:00,60.2,60.0,29.77,ENE,67,0.0,0.0,98,0.00,,,0.00,weatherlink.com 1.10,2013-09-04 04:20:00,
2013-09-04 00:35:00,60.4,60.0,29.77,ENE,67,0.0,0.0,98,0.00,,,0.00,weatherlink.com 1.10,2013-09-04 04:35:00,
2013-09-04 00:50:00,60.3,60.0,29.78,ENE,67,0.0,0.0,98,0.00,,,0.00,weatherlink.com 1.10,2013-09-04 04:50:00,
2013-09-04 01:05:00,60.1,59.0,29.78,ENE,67,0.0,1.0,97,0.00,,,0.00,weatherlink.com 1.10,2013-09-04 05:05:00,
2013-09-04 01:20:00,60.1,60.0,29.78,ENE,67,0.0,2.0,98,0.00,,,0.00,weatherlink.com 1.10,2013-09-04 05:20:00,
2013-09-04 01:35:00,60.0,60.0,29.78,ENE,67,0.0,0.0,98,0.00,,,0.00,weatherlink.com 1.10,2013-09-04 05:35:00,
2013-09-04 01:50:00,60.0,59.0,29.78,ENE,67,0.0,0.0,97,0.00,,,0.00,weatherlink.com 1.10,2013-09-04 05:50:00,
2013-09-04 02:05:00,59.9,59.0,29.78,ENE,67,0.0,0.0,98,0.00,,,0.00,weatherlink.com 1.10,2013-09-04 06:05:00,
2013-09-04 02:20:00,60.0,60.0,29.78,ENE,67,0.0,0.0,98,0.00,,,0.00,weatherlink.com 1.10,2013-09-04 06:20:00,
2013-09-04 02:35:00,59.9,59.0,29.78,ENE,67,0.0,0.0,98,0.00,,,0.00,weatherlink.com 1.10,2013-09-04 06:35:00,
2013-09-04 02:50:00,59.9,59.0,29.78,ENE,67,0.0,0.0,98,0.00,,,0.00,weatherlink.com 1.10,2013-09-04 06:50:00,
2013-09-04 03:05:00,59.9,59.0,29.78,ENE,67,0.0,0.0,98,0.00,,,0.00,weatherlink.com 1.10,2013-09-04 07:05:00,
2013-09-04 03:20:00,59.8,59.0,29.78,ENE,67,0.0,0.0,98,0.00,,,0.00,weatherlink.com 1.10,2013-09-04 07:20:00,
2013-09-04 03:35:00,59.6,59.0,29.78,ENE,67,0.0,0.0,98,0.00,,,0.00,weatherlink.com 1.10,2013-09-04 07:35:00,
2013-09-04 03:50:00,59.5,59.0,29.78,ENE,67,0.0,0.0,98,0.00,,,0.00,weatherlink.com 1.10,2013-09-04 07:50:00,
2013-09-04 04:05:00,59.4,59.0,29.78,ENE,67,0.0,0.0,98,0.00,,,0.00,weatherlink.com 1.10,2013-09-04 08:05:00,
2013-09-04 04:20:00,58.9,58.0,29.79,ENE,67,0.0,0.0,97,0.01,,,0.01,weatherlink.com 1.10,2013-09-04 08:20:00,
2013-09-04 04:35:00,58.6,58.0,29.79,ENE,67,0.0,0.0,98,0.01,,,0.01,weatherlink.com 1.10,2013-09-04 08:35:00,
2013-09-04 04:50:00,58.6,58.0,29.80,ENE,67,0.0,0.0,98,0.01,,,0.01,weatherlink.com 1.10,2013-09-04 08:50:00,
2013-09-04 05:05:00,58.1,58.0,29.80,ENE,67,0.0,0.0,98,0.01,,,0.01,weatherlink.com 1.10,2013-09-04 09:05:00,
2013-09-04 05:20:00,57.7,57.0,29.80,ENE,67,0.0,1.0,98,0.00,,,0.01,weatherlink.com 1.10,2013-09-04 09:20:00,
2013-09-04 05:35:00,57.1,57.0,29.81,ENE,67,0.0,1.0,98,0.00,,,0.01,weatherlink.com 1.10,2013-09-04 09:35:00,
2013-09-04 05:50:00,56.7,56.0,29.81,ENE,67,2.0,4.0,98,0.00,,,0.01,weatherlink.com 1.10,2013-09-04 09:50:00,
2013-09-04 06:05:00,55.9,55.0,29.81,NE,54,2.0,3.0,98,0.00,,,0.01,weatherlink.com 1.10,2013-09-04 10:05:00,
2013-09-04 06:20:00,55.3,55.0,29.81,NE,54,0.0,0.0,98,0.00,,,0.01,weatherlink.com 1.10,2013-09-04 10:20:00,
2013-09-04 06:35:00,54.9,54.0,29.81,NE,54,0.0,0.0,98,0.00,,,0.01,weatherlink.com 1.10,2013-09-04 10:35:00,
2013-09-04 06:50:00,54.5,54.0,29.82,NE,54,1.0,1.0,98,0.00,,,0.01,weatherlink.com 1.10,2013-09-04 10:50:00,
2013-09-04 07:05:00,54.4,54.0,29.82,NE,54,3.0,3.0,99,0.00,,,0.01,weatherlink.com 1.10,2013-09-04 11:05:00,
2013-09-04 07:20:00,54.9,55.0,29.82,NE,54,0.0,3.0,99,0.00,,,0.01,weatherlink.com 1.10,2013-09-04 11:20:00,
2013-09-04 07:35:00,55.8,56.0,29.82,NE,55,1.0,2.0,99,0.00,,,0.01,weatherlink.com 1.10,2013-09-04 11:35:00,
2013-09-04 07:50:00,56.8,57.0,29.82,NE,54,1.0,2.0,99,0.00,,,0.01,weatherlink.com 1.10,2013-09-04 11:50:00,
2013-09-04 08:05:00,57.8,58.0,29.82,NE,54,0.0,2.0,99,0.00,,,0.01,weatherlink.com 1.10,2013-09-04 12:05:00,
2013-09-04 08:20:00,58.5,58.0,29.82,NE,54,1.0,3.0,99,0.00,,,0.01,weatherlink.com 1.10,2013-09-04 12:20:00,
2013-09-04 08:35:00,60.4,59.0,29.82,NE,56,2.0,4.0,94,0.00,,,0.01,weatherlink.com 1.10,2013-09-04 12:35:00,
2013-09-04 08:50:00,62.2,58.0,29.82,ENE,69,2.0,7.0,87,0.00,,,0.01,weatherlink.com 1.10,2013-09-04 12:50:00,
2013-09-04 09:05:00,63.3,59.0,29.81,ENE,60,4.0,9.0,85,0.00,,,0.01,weatherlink.com 1.10,2013-09-04 13:05:00,
2013-09-04 09:20:00,63.9,59.0,29.82,NE,53,2.0,8.0,83,0.00,,,0.01,weatherlink.com 1.10,2013-09-04 13:20:00,
2013-09-04 09:35:00,65.1,59.0,29.82,ENE,59,1.0,5.0,80,0.00,,,0.01,weatherlink.com 1.10,2013-09-04 13:35:00,
2013-09-04 09:51:00,66.0,58.0,29.82,NE,48,1.0,10.0,75,0.00,,,0.01,weatherlink.com 1.10,2013-09-04 13:51:00,
2013-09-04 10:06:00,66.3,59.0,29.82,NE,54,3.0,11.0,77,0.00,,,0.01,weatherlink.com 1.10,2013-09-04 14:06:00,
2013-09-04 10:21:00,66.8,59.0,29.83,NE,50,4.0,9.0,75,0.00,,,0.01,weatherlink.com 1.10,2013-09-04 14:21:00,
2013-09-04 10:36:00,67.3,59.0,29.83,East,86,11.0,11.0,75,0.00,,,0.01,weatherlink.com 1.10,2013-09-04 14:36:00,
2013-09-04 10:51:00,68.1,59.0,29.83,WSW,250,3.0,6.0,73,0.00,,,0.01,weatherlink.com 1.10,2013-09-04 14:51:00,
2013-09-04 11:06:00,68.3,59.0,29.84,ENE,60,7.0,12.0,72,0.00,,,0.01,weatherlink.com 1.10,2013-09-04 15:06:00,
2013-09-04 11:21:00,68.3,58.0,29.84,ENE,66,8.0,14.0,69,0.00,,,0.01,weatherlink.com 1.10,2013-09-04 15:21:00,
2013-09-04 11:36:00,67.9,56.0,29.84,ENE,59,3.0,11.0,65,0.00,,,0.01,weatherlink.com 1.10,2013-09-04 15:36:00,
2013-09-04 11:51:00,68.0,58.0,29.84,NE,35,1.0,11.0,71,0.00,,,0.01,weatherlink.com 1.10,2013-09-04 15:51:00,
2013-09-04 12:06:00,67.9,57.0,29.84,NE,53,0.0,7.0,69,0.00,,,0.01,weatherlink.com 1.10,2013-09-04 16:06:00,
2013-09-04 12:21:00,69.7,61.0,29.83,SW,214,0.0,5.0,74,0.00,,,0.01,weatherlink.com 1.10,2013-09-04 16:21:00,
2013-09-04 12:36:00,70.7,60.0,29.84,SSE,165,0.0,2.0,68,0.00,,,0.01,weatherlink.com 1.10,2013-09-04 16:36:00,
2013-09-04 12:51:00,71.4,60.0,29.84,NE,38,0.0,3.0,67,0.00,,,0.01,weatherlink.com 1.10,2013-09-04 16:51:00,
2013-09-04 13:06:00,71.4,59.0,29.84,East,88,0.0,2.0,66,0.00,,,0.01,weatherlink.com 1.10,2013-09-04 17:06:00,
2013-09-04 13:21:00,71.3,61.0,29.84,South,180,1.0,2.0,70,0.00,,,0.01,weatherlink.com 1.10,2013-09-04 17:21:00,
2013-09-04 13:36:00,71.7,61.0,29.84,SSW,192,0.0,4.0,69,0.00,,,0.01,weatherlink.com 1.10,2013-09-04 17:36:00,
2013-09-04 13:51:00,72.1,60.0,29.83,SSE,163,0.0,1.0,66,0.00,,,0.01,weatherlink.com 1.10,2013-09-04 17:51:00,
2013-09-04 14:06:00,73.8,63.0,29.83,South,173,3.0,6.0,69,0.00,,,0.01,weatherlink.com 1.10,2013-09-04 18:06:00,
2013-09-04 14:21:00,74.8,63.0,29.82,South,188,0.0,5.0,67,0.00,,,0.01,weatherlink.com 1.10,2013-09-04 18:21:00,
2013-09-04 14:36:00,76.6,62.0,29.82,South,169,0.0,3.0,61,0.00,,,0.01,weatherlink.com 1.10,2013-09-04 18:36:00,
2013-09-04 15:06:00,74.6,60.0,29.82,NE,44,2.0,3.0,60,0.00,,,0.01,weatherlink.com 1.10,2013-09-04 19:06:00,
2013-09-04 15:21:00,73.4,62.0,29.82,SSE,168,0.0,2.0,67,0.00,,,0.01,weatherlink.com 1.10,2013-09-04 19:21:00,
2013-09-04 15:36:00,72.5,61.0,29.81,SSW,193,0.0,3.0,68,0.00,,,0.01,weatherlink.com 1.10,2013-09-04 19:36:00,
2013-09-04 15:51:00,72.2,64.0,29.81,SSW,193,0.0,1.0,74,0.00,,,0.01,weatherlink.com 1.10,2013-09-04 19:51:00,
2013-09-04 16:06:00,70.6,61.0,29.81,SE,143,0.0,1.0,72,0.00,,,0.01,weatherlink.com 1.10,2013-09-04 20:06:00,
2013-09-04 16:21:00,69.5,62.0,29.81,SE,143,0.0,1.0,77,0.00,,,0.01,weatherlink.com 1.10,2013-09-04 20:21:00,
2013-09-04 16:36:00,67.9,62.0,29.81,SE,143,0.0,1.0,81,0.00,,,0.01,weatherlink.com 1.10,2013-09-04 20:36:00,
2013-09-04 16:51:00,67.3,63.0,29.81,SSE,153,1.0,2.0,85,0.00,,,0.01,weatherlink.com 1.10,2013-09-04 20:51:00,
2013-09-04 17:21:00,65.6,61.0,29.83,WNW,286,1.0,5.0,84,0.00,,,0.01,weatherlink.com 1.10,2013-09-04 21:21:00,
2013-09-04 17:36:00,64.7,61.0,29.84,SW,221,1.0,7.0,86,0.00,,,0.01,weatherlink.com 1.10,2013-09-04 21:36:00,
2013-09-04 17:51:00,64.0,60.0,29.85,South,187,0.0,1.0,88,0.00,,,0.01,weatherlink.com 1.10,2013-09-04 21:51:00,
2013-09-04 18:06:00,63.3,60.0,29.85,South,188,0.0,0.0,90,0.00,,,0.01,weatherlink.com 1.10,2013-09-04 22:06:00,
2013-09-04 18:21:00,62.6,60.0,29.85,SSE,162,0.0,1.0,92,0.03,,,0.04,weatherlink.com 1.10,2013-09-04 22:21:00,
2013-09-04 18:36:00,62.0,60.0,29.85,SSE,162,0.0,0.0,94,0.03,,,0.04,weatherlink.com 1.10,2013-09-04 22:36:00,
2013-09-04 18:51:00,61.8,60.0,29.85,SSE,162,0.0,0.0,94,0.03,,,0.04,weatherlink.com 1.10,2013-09-04 22:51:00,
2013-09-04 19:06:00,61.4,60.0,29.85,SSE,162,0.0,1.0,95,0.03,,,0.05,weatherlink.com 1.10,2013-09-04 23:06:00,
2013-09-04 19:21:00,60.9,60.0,29.85,SSE,162,0.0,1.0,96,0.01,,,0.05,weatherlink.com 1.10,2013-09-04 23:21:00,
2013-09-04 19:36:00,60.8,60.0,29.84,ENE,73,2.0,3.0,97,0.02,,,0.06,weatherlink.com 1.10,2013-09-04 23:36:00,
2013-09-04 19:51:00,60.5,60.0,29.85,ENE,73,0.0,2.0,97,0.03,,,0.07,weatherlink.com 1.10,2013-09-04 23:51:00,
2013-09-04 20:06:00,60.5,60.0,29.86,ENE,73,1.0,2.0,97,0.04,,,0.09,weatherlink.com 1.10,2013-09-05 00:06:00,
2013-09-04 20:21:00,60.6,60.0,29.86,ENE,73,0.0,0.0,97,0.06,,,0.11,weatherlink.com 1.10,2013-09-05 00:21:00,
2013-09-04 20:51:00,60.7,60.0,29.87,ENE,73,0.0,0.0,98,0.08,,,0.15,weatherlink.com 1.10,2013-09-05 00:51:00,
2013-09-04 21:06:00,60.7,60.0,29.87,ENE,73,0.0,0.0,98,0.10,,,0.19,weatherlink.com 1.10,2013-09-05 01:06:00,
2013-09-04 21:22:00,60.7,60.0,29.87,ENE,73,0.0,0.0,98,0.11,,,0.22,weatherlink.com 1.10,2013-09-05 01:22:00,
2013-09-04 21:37:00,60.7,60.0,29.87,ENE,73,0.0,0.0,98,0.10,,,0.23,weatherlink.com 1.10,2013-09-05 01:37:00,
2013-09-04 21:52:00,60.6,60.0,29.87,ENE,73,0.0,0.0,98,0.09,,,0.24,weatherlink.com 1.10,2013-09-05 01:52:00,
2013-09-04 22:07:00,60.7,60.0,29.87,ENE,73,0.0,0.0,98,0.04,,,0.24,weatherlink.com 1.10,2013-09-05 02:07:00,
2013-09-04 22:22:00,60.2,60.0,29.87,ENE,73,0.0,0.0,98,0.02,,,0.24,weatherlink.com 1.10,2013-09-05 02:22:00,
2013-09-04 22:37:00,60.0,60.0,29.86,ENE,73,0.0,0.0,98,0.01,,,0.24,weatherlink.com 1.10,2013-09-05 02:37:00,
2013-09-04 22:52:00,60.1,60.0,29.86,ENE,73,0.0,1.0,98,0.00,,,0.24,weatherlink.com 1.10,2013-09-05 02:52:00,
2013-09-04 23:07:00,60.0,60.0,29.86,ENE,73,0.0,0.0,98,0.00,,,0.24,weatherlink.com 1.10,2013-09-05 03:07:00,
2013-09-04 23:22:00,60.0,60.0,29.86,ENE,73,0.0,0.0,98,0.00,,,0.24,weatherlink.com 1.10,2013-09-05 03:22:00,
2013-09-04 23:37:00,59.9,59.0,29.85,ENE,73,0.0,0.0,98,0.00,,,0.24,weatherlink.com 1.10,2013-09-05 03:37:00,
2013-09-04 23:52:00,60.0,60.0,29.85,ENE,73,0.0,0.0,98,0.00,,,0.24,weatherlink.com 1.10,2013-09-05 03:52:00,